Cumberland, WI

8:51 PM CDT on July 25, 2017 (GMT -0500)
Cumberland Municipal

Weather History for KUBE - October, 2012

Change the Weather History Date:

Thursday, October 25, 2012

  Actual Average (KRPD) Record (KRPD)
Temperature  
Mean Temperature 40 °F -  
Max Temperature 48 °F 50 °F 66 °F (2000)
Min Temperature 33 °F 35 °F 26 °F (1997)
Degree Days  
Heating Degree Days 24    
Moisture  
Dew Point 35 °F    
Average Humidity 91    
Maximum Humidity 100    
Minimum Humidity 81    
Precipitation  
Precipitation 0.37 in - - ()
Sea Level Pressure  
Sea Level Pressure 29.79 in    
Wind  
Wind Speed 14 mph (NW)    
Max Wind Speed 22 mph    
Max Gust Speed 31 mph    
Visibility 7 miles    
Events Rain , Snow , Thunderstorm    
Averages and records for this station are not official NWS values.
T = Trace of Precipitation, MM = Missing Value Source: NWS Daily Summary

Daily Weather History Graph

Daily Weather History Graph

Search for Another Location

Airport or City:

Trip Planner

Search our weather history database for the weather conditions in past years. The results will help you decide how hot, cold, wet, or windy it might be!

Date:

Astronomy

Oct. 25, 2012 Rise Set
Actual Time 7:38 AM CDT 6:04 PM CDT
Civil Twilight 7:07 AM CDT 6:35 PM CDT
Nautical Twilight 6:33 AM CDT 7:09 PM CDT
Astronomical Twilight 5:58 AM CDT 7:44 PM CDT
Moon 4:00 PM CDT (10/25) 3:24 AM CDT (10/25)
Length of Visible Light 11h 27m
Length of Day
10h 26m
Waxing Gibbous, 84% of the Moon is Illuminated
Oct 25
Waxing Gibbous
Oct 29
Full
Nov 6
Last Quarter
Nov 13
New
Nov 20
First Quarter

Hourly Weather History & Observations

Time (CDT) Temp. Windchill Dew Point Humidity Pressure Visibility Wind Dir Wind Speed Gust Speed Precip Events Conditions
12:35 AM 48.2 °F - 46.4 °F 93% 29.71 in 4.0 mi North 12.7 mph - N/A   Overcast
12:55 AM 48.2 °F - 46.4 °F 93% 29.71 in 5.0 mi North 16.1 mph 19.6 mph 0.02 in Rain Heavy Rain
1:15 AM 48.2 °F - 46.4 °F 93% 29.70 in 10.0 mi North 10.4 mph 17.3 mph 0.01 in Rain , Thunderstorm Light Thunderstorms and Rain
1:35 AM 48.2 °F - 46.4 °F 93% 29.71 in 10.0 mi North 9.2 mph - 0.02 in Rain , Thunderstorm Light Thunderstorms and Rain
1:55 AM 48.2 °F - 46.4 °F 93% 29.70 in 10.0 mi North 12.7 mph - 0.03 in Rain Rain
2:35 AM 46.4 °F 40.7 °F 44.6 °F 93% 29.70 in 7.0 mi North 12.7 mph - N/A   Overcast
2:55 AM 46.4 °F 40.7 °F 44.6 °F 93% 29.68 in 5.0 mi North 12.7 mph - N/A   Overcast
3:15 AM 46.4 °F 41.1 °F 44.6 °F 93% 29.69 in 5.0 mi North 11.5 mph - N/A   Overcast
3:35 AM 46.4 °F 40.1 °F 44.6 °F 93% 29.66 in 5.0 mi North 15.0 mph 18.4 mph N/A   Overcast
3:55 AM 44.6 °F 37.2 °F 44.6 °F 100% 29.65 in 5.0 mi North 17.3 mph 21.9 mph N/A   Overcast
4:15 AM 44.6 °F 38.1 °F 42.8 °F 93% 29.66 in 7.0 mi North 13.8 mph - N/A   Overcast
4:35 AM 44.6 °F 38.4 °F 42.8 °F 93% 29.65 in 7.0 mi North 12.7 mph 21.9 mph N/A   Overcast
4:55 AM 44.6 °F 38.1 °F 42.8 °F 93% 29.65 in 7.0 mi North 13.8 mph - N/A   Overcast
5:15 AM 42.8 °F 35.4 °F 42.8 °F 100% 29.66 in 4.0 mi NNW 15.0 mph 25.3 mph N/A Rain , Thunderstorm Light Thunderstorms and Rain
5:35 AM 42.8 °F 35.8 °F 41.0 °F 93% 29.67 in 1.8 mi NNW 13.8 mph - 0.08 in Rain , Thunderstorm Light Thunderstorms and Rain
5:55 AM 42.8 °F 35.4 °F 41.0 °F 93% 29.62 in 4.0 mi North 15.0 mph 21.9 mph 0.18 in Rain , Thunderstorm Heavy Thunderstorms and Rain
7:15 AM 41.0 °F 34.3 °F 39.2 °F 93% 29.66 in 5.0 mi North 11.5 mph - 0.06 in Rain , Thunderstorm Heavy Thunderstorms and Rain
7:35 AM 41.0 °F 34.7 °F 39.2 °F 93% 29.64 in 7.0 mi North 10.4 mph - 0.12 in Rain , Thunderstorm Rain
7:55 AM 41.0 °F 32.5 °F 39.2 °F 93% 29.60 in 10.0 mi North 17.3 mph 23.0 mph 0.13 in Rain Light Rain
8:35 AM 41.0 °F 31.6 °F 37.4 °F 87% 29.60 in 10.0 mi NNW 20.7 mph 31.1 mph N/A   Overcast
8:55 AM 39.2 °F 29.6 °F 37.4 °F 93% 29.62 in 7.0 mi NNW 19.6 mph 29.9 mph N/A   Overcast
9:15 AM 39.2 °F 30.8 °F 37.4 °F 93% 29.64 in 2.0 mi NNW 15.0 mph 29.9 mph N/A   Overcast
9:35 AM 37.4 °F 27.2 °F 35.6 °F 93% 29.65 in 2.5 mi NNW 19.6 mph 26.5 mph N/A   Overcast
9:55 AM 37.4 °F 28.5 °F 35.6 °F 93% 29.66 in 3.0 mi NNW 15.0 mph 25.3 mph N/A   Overcast
10:15 AM 37.4 °F 27.2 °F 35.6 °F 93% 29.64 in 3.0 mi NNW 19.6 mph 28.8 mph N/A   Drizzle
10:55 AM 37.4 °F 28.2 °F 35.6 °F 93% 29.68 in 1.2 mi NNW 16.1 mph 25.3 mph N/A   Light Drizzle
11:15 AM 37.4 °F 28.2 °F 35.6 °F 93% 29.69 in 1.2 mi NW 16.1 mph 26.5 mph 0.01 in Snow Light Snow
11:35 AM 37.4 °F 28.5 °F 35.6 °F 93% 29.70 in 2.0 mi NW 15.0 mph 25.3 mph 0.01 in Rain Light Rain
11:55 AM 35.6 °F 24.8 °F 33.8 °F 93% 29.72 in 1.8 mi NW 19.6 mph 28.8 mph 0.01 in Rain Light Rain
12:15 PM 35.6 °F 25.2 °F 33.8 °F 93% 29.72 in 2.5 mi NW 18.4 mph 28.8 mph N/A Rain Light Rain
12:35 PM 35.6 °F 24.2 °F 32.0 °F 87% 29.72 in 3.0 mi NNW 21.9 mph 29.9 mph N/A Rain Light Rain
12:55 PM 33.8 °F 22.8 °F 32.0 °F 93% 29.74 in 1.5 mi NW 18.4 mph 26.5 mph N/A Snow Snow
1:15 PM 33.8 °F 24.3 °F 32.0 °F 93% 29.74 in 1.8 mi NW 13.8 mph 21.9 mph N/A Rain Rain
1:35 PM 33.8 °F 23.5 °F 32.0 °F 93% 29.75 in 2.0 mi NNW 16.1 mph 24.2 mph N/A Rain Rain
1:55 PM 33.8 °F 23.9 °F 32.0 °F 93% 29.76 in 3.0 mi NW 15.0 mph 24.2 mph N/A Rain Light Rain
2:15 PM 33.8 °F 23.9 °F 32.0 °F 93% 29.75 in 5.0 mi NW 15.0 mph 26.5 mph N/A Snow Light Snow
2:35 PM 33.8 °F 23.5 °F 32.0 °F 93% 29.76 in 4.0 mi NW 16.1 mph 27.6 mph N/A Snow Light Snow
2:55 PM 33.8 °F 23.9 °F 32.0 °F 93% 29.79 in 7.0 mi NW 15.0 mph 25.3 mph N/A Rain Light Rain
3:15 PM 33.8 °F 23.9 °F 32.0 °F 93% 29.80 in 10.0 mi NW 15.0 mph - N/A   Overcast
3:35 PM 33.8 °F 23.2 °F 32.0 °F 93% 29.82 in 10.0 mi NW 17.3 mph 31.1 mph N/A   Overcast
3:55 PM 33.8 °F 22.5 °F 32.0 °F 93% 29.83 in 10.0 mi NW 19.6 mph 26.5 mph N/A   Overcast
4:15 PM 33.8 °F 24.3 °F 32.0 °F 93% 29.84 in 10.0 mi NW 13.8 mph 20.7 mph N/A   Overcast
4:35 PM 33.8 °F 24.3 °F 32.0 °F 93% 29.85 in 10.0 mi NW 13.8 mph 19.6 mph N/A   Overcast
4:55 PM 33.8 °F 23.9 °F 32.0 °F 93% 29.85 in 10.0 mi NW 15.0 mph 20.7 mph N/A   Overcast
5:15 PM 33.8 °F 23.5 °F 32.0 °F 93% 29.86 in 10.0 mi WNW 16.1 mph 23.0 mph N/A   Overcast
5:35 PM 33.8 °F 23.9 °F 32.0 °F 93% 29.87 in 10.0 mi WNW 15.0 mph 19.6 mph N/A   Overcast
5:55 PM 33.8 °F 23.9 °F 30.2 °F 87% 29.89 in 10.0 mi NW 15.0 mph 23.0 mph N/A   Overcast
6:15 PM 33.8 °F 23.5 °F 30.2 °F 87% 29.91 in 10.0 mi WNW 16.1 mph 21.9 mph N/A   Overcast
6:35 PM 33.8 °F 23.5 °F 30.2 °F 87% 29.93 in 10.0 mi WNW 16.1 mph 20.7 mph N/A   Overcast
7:15 PM 35.6 °F 26.6 °F 30.2 °F 81% 29.96 in 10.0 mi WNW 13.8 mph 25.3 mph N/A   Overcast
7:35 PM 33.8 °F 24.3 °F 30.2 °F 87% 29.97 in 10.0 mi West 13.8 mph - N/A   Overcast
7:55 PM 33.8 °F 23.9 °F 32.0 °F 93% 29.98 in 10.0 mi West 15.0 mph - N/A   Overcast
8:15 PM 33.8 °F 23.9 °F 30.2 °F 87% 29.99 in 10.0 mi West 15.0 mph 24.2 mph N/A   Overcast
8:35 PM 33.8 °F 23.5 °F 30.2 °F 87% 30.00 in 10.0 mi WNW 16.1 mph 19.6 mph N/A   Overcast
8:55 PM 33.8 °F 23.2 °F 30.2 °F 87% 30.01 in 10.0 mi WNW 17.3 mph 23.0 mph N/A   Overcast
9:15 PM 33.8 °F 25.3 °F 28.4 °F 81% 30.01 in 10.0 mi West 11.5 mph 19.6 mph N/A   Overcast
9:35 PM 33.8 °F 23.9 °F 28.4 °F 81% 30.02 in 10.0 mi West 15.0 mph 20.7 mph N/A   Overcast
9:55 PM 33.8 °F 24.3 °F 28.4 °F 81% 30.02 in 10.0 mi West 13.8 mph 20.7 mph N/A   Overcast
10:15 PM 33.8 °F 23.9 °F 28.4 °F 81% 30.02 in 10.0 mi West 15.0 mph 18.4 mph N/A   Overcast
10:35 PM 33.8 °F 24.3 °F 28.4 °F 81% 30.03 in 10.0 mi West 13.8 mph - N/A   Overcast
10:55 PM 33.8 °F 24.3 °F 28.4 °F 81% 30.04 in 10.0 mi West 13.8 mph 21.9 mph N/A   Overcast
11:15 PM 33.8 °F 25.8 °F 28.4 °F 81% 30.05 in 10.0 mi West 10.4 mph 18.4 mph N/A   Overcast
11:35 PM 33.8 °F 25.3 °F 28.4 °F 81% 30.06 in 10.0 mi West 11.5 mph 17.3 mph N/A   Overcast
11:55 PM 33.8 °F 24.3 °F 28.4 °F 81% 30.06 in 10.0 mi West 13.8 mph - N/A   Overcast